[[{"header":{"parameterUnit":"m.s-1","parameterCategory":1,"la1":30.2991,"la2":30.254,"lo1":-89.0895,"lo2":-89.0444,"dy":0.0017,"dx":0.0017,"nx":28,"ny":28,"refTime":"2024-09-27T09:00:00:Z","depth":0,"parameterNumber":2,"parameterNumberName":"U-component_of_WINDS"},"data":[0,0,0,0,0,0,0,0,0,0,0,0,0,0,0,0,0,0,0,0,0,0,0,0,0,0,0,0,0,0,0,0,0,0,0,0,0,0,0,0,0,0,0,0,0,0,0,0,0,0,0,0,0,0,0,0,0,0,6.332,6.3322,0,6.3593,6.3596,6.3599,6.3558,6.3553,6.3548,6.3544,6.3829,6.384,6.3852,0,0,0,0,0,0,0,0,0,0,0,0,0,6.2762,6.2773,6.3319,6.3323,6.3326,6.3593,6.3596,6.36,6.3559,6.3553,6.3547,6.3542,6.3825,6.3839,6.3853,0,0,0,0,0,0,0,0,0,0,0,0,0,6.3017,6.2776,6.3319,6.3337,6.3342,6.3592,6.3597,6.3601,6.356,6.3553,6.3546,6.3539,6.382,6.3837,6.3855,6.4105,0,0,6.391,6.3917,0,0,0,0,0,0,0,0,6.3003,6.3038,6.3331,6.3337,6.3342,6.3534,6.3504,6.377,6.3562,6.3477,6.3544,6.3536,6.3737,6.3761,6.3828,6.4118,6.4131,6.3911,6.3922,6.393,6.3935,0,0,0,0,0,0,0,6.2985,6.3026,6.3428,6.3336,6.3342,6.3333,6.3361,6.3554,6.3643,6.3484,6.3482,6.3514,6.3738,6.381,6.3834,6.4135,6.3911,6.3927,6.3938,6.3945,6.464,6.4648,0,0,0,0,0,0,6.2962,6.3011,6.3419,6.3436,6.3151,6.3348,6.338,6.348,6.3641,6.3658,6.352,6.3511,6.3783,6.3813,6.3844,6.4144,6.393,6.3946,6.3957,6.4633,6.4642,6.465,0,0,0,0,0,0,6.295,6.2999,6.3408,6.3223,6.3274,6.3365,6.3477,6.3489,6.3561,6.3668,6.3684,6.3578,6.3779,6.3819,6.4039,6.4153,6.3954,6.3971,6.4624,6.4636,6.4646,6.4748,0,0,0,0,0,0,6.2934,6.2995,6.309,6.3225,6.3284,6.3599,6.3484,6.3499,6.3591,6.3583,6.3726,6.3743,6.3777,6.4013,6.4057,6.4174,6.3985,6.4614,6.4629,6.4643,6.4735,6.4762,6.4785,0,0,0,0,0,6.2914,6.311,6.3095,6.3145,6.3406,6.3605,6.3639,6.3673,6.3601,6.3697,6.3766,6.3738,6.4134,6.4036,6.4085,6.421,6.4607,6.4625,6.4642,6.4724,6.4756,6.4784,0,0,0,0,0,0,6.2988,6.3128,6.3113,6.3358,6.347,6.3598,6.3721,6.3707,6.3842,6.3829,6.3866,6.3899,6.4121,6.4188,6.4076,6.4458,6.436,6.4389,6.4406,6.4438,6.4462,6.4441,6.3999,0,0,0,0,0,6.3032,6.3182,6.3297,6.3502,6.3558,6.363,6.3718,6.3734,6.3852,6.3899,6.3984,6.41,6.425,6.4348,6.4492,6.4745,6.4774,6.4855,6.488,6.49,6.4923,6.5058,6.5094,6.4708,6.4708,6.4707,0,0,6.3126,6.3221,6.3314,6.3519,6.3607,6.376,6.367,6.3838,6.3952,6.3925,6.4137,6.4203,6.4335,6.4571,6.468,6.4634,6.5036,6.4922,6.4937,6.495,6.5079,6.5116,6.5148,6.472,6.4718,6.4716,0,0,6.3375,6.3463,6.3641,6.3731,6.3865,6.3911,6.3954,6.4084,6.4126,6.4339,6.4321,6.4458,6.4717,6.481,6.4891,6.5172,6.5151,6.5219,6.5348,6.5479,6.551,6.5537,6.5634,6.5669,6.5242,6.5243,6.5243,0,6.3475,6.3705,6.3735,6.3904,6.3993,6.3974,6.4154,6.4241,6.4416,6.4478,6.4424,6.4745,6.4833,6.5089,6.5157,6.5225,6.5274,6.5202,6.5503,6.553,6.5556,6.5649,6.5686,6.525,6.5249,6.5248,6.5247,0,6.3819,6.3979,6.4107,6.4273,6.4378,6.4552,6.4608,6.4711,6.4717,6.4769,6.4984,6.5089,6.5252,6.5315,6.5324,6.5572,6.5539,6.5494,6.5396,6.5599,6.5687,6.5723,6.526,6.5257,6.5255,6.5253,0,0,6.4123,6.4301,6.4348,6.4421,6.4566,6.4691,6.4863,6.502,6.5106,6.5228,6.5371,6.5589,6.5547,6.564,6.5659,6.5775,6.5986,6.5715,6.5719,6.5759,6.6262,6.6293,6.6334,6.5974,6.5981,6.5987,6.625,0,6.4383,6.4685,6.4716,6.4986,6.5132,6.5115,6.5265,6.537,6.5423,6.5555,6.5614,6.5766,6.5701,6.5756,6.587,6.5936,6.6087,6.5918,6.6107,6.6113,6.6071,6.638,6.6414,6.6657,6.6285,6.6291,6.6295,0,6.4727,6.4854,6.5138,6.5259,6.5322,6.5456,6.5601,6.5728,6.5846,6.5876,6.5978,6.5982,6.6158,6.6055,6.6298,6.6182,6.6261,6.6306,6.6316,6.6333,6.6214,6.6402,6.6736,6.6772,6.635,6.6346,6.6342,0,6.4914,6.5158,6.5358,6.5422,6.557,6.5664,6.573,6.5841,6.5933,6.6061,6.612,6.6268,6.6348,6.6462,6.6505,6.6426,6.6745,6.6646,6.6773,6.6772,6.684,6.6834,6.7188,6.6896,6.6895,6.6894,6.6894,0,6.52,6.5374,6.5444,6.5567,6.576,6.5795,6.5986,6.6047,6.6146,6.628,6.6277,6.6403,6.6453,6.6588,6.6623,6.6817,6.6854,6.6882,6.6889,6.6881,6.6877,6.6932,6.6915,6.6904,6.6902,6.69,6.6899,0,6.5442,6.5497,6.5713,6.5834,6.5868,6.6005,6.6109,6.6227,6.6277,6.6447,6.6489,6.6569,6.6726,6.678,6.6973,6.6996,6.7221,6.7215,6.718,6.718,6.7304,6.729,6.7703,6.7757,6.7432,6.7435,6.7438,0,6.5619,6.5752,6.5886,6.5974,6.6043,6.6187,6.6279,6.6318,6.6415,6.6558,6.6659,6.6814,6.6941,6.7194,6.7269,6.7415,6.7411,6.7545,6.7433,6.7419,6.7409,6.7399,6.7411,6.7565,6.7569,6.7571,6.7574,0,6.5927,6.5946,6.6079,6.6221,6.633,6.6445,6.6555,6.6628,6.6683,6.6792,6.6951,6.7049,6.7244,6.7398,6.7547,6.7615,6.7604,6.7608,6.7645,6.7637,6.7609,6.7622,6.7234,6.7598,6.7596,6.7594,6.7593,6.7592,6.614,6.6255,6.6366,6.6513,6.66,6.6702,6.6818,6.6881,6.7015,6.7174,6.719,6.7361,6.7474,6.7672,6.7748,6.7882,6.7845,6.7899,6.7912,6.7924,6.7931,6.759,6.791,6.7909,6.7909,6.7908,6.7908,0,6.6444,6.6514,6.6649,6.6801,6.6917,6.6894,6.7014,6.7112,6.7263,6.7368,6.7492,6.7674,6.7823,6.7908,6.8057,6.8148,6.8146,6.8186,6.8178,6.8193,6.7958,6.791,6.8184,6.8184,6.8184,6.8184,6.8184,6.8184,6.6615,6.6808,6.684,6.7075,6.7145,6.7311,6.7381,6.7475,6.7558,6.7761,6.7884,6.7938,6.8035,6.8191,6.8326,6.8347,6.8401,6.8443,6.8461,6.8239,6.821,6.8183,6.8137,6.8455,6.8456,6.8684,6.8686,6.8688]},{"header":{"parameterUnit":"m.s-1","parameterCategory":1,"la1":30.2991,"la2":30.254,"lo1":-89.0895,"lo2":-89.0444,"dy":0.0017,"dx":0.0017,"nx":28,"ny":28,"refTime":"2024-09-27T09:00:00:Z","depth":0,"parameterNumber":3,"parameterNumberName":"V-component_of_WINDS"},"data":[0,0,0,0,0,0,0,0,0,0,0,0,0,0,0,0,0,0,0,0,0,0,0,0,0,0,0,0,0,0,0,0,0,0,0,0,0,0,0,0,0,0,0,0,0,0,0,0,0,0,0,0,0,0,0,0,0,0,2.5652,2.5652,0,2.5692,2.5692,2.5693,2.565,2.5648,2.5647,2.5645,2.5685,2.5687,2.569,0,0,0,0,0,0,0,0,0,0,0,0,0,2.5537,2.5539,2.5652,2.5653,2.5653,2.5692,2.5692,2.5693,2.565,2.5648,2.5646,2.5645,2.5684,2.5687,2.569,0,0,0,0,0,0,0,0,0,0,0,0,0,2.5583,2.554,2.5652,2.5637,2.5636,2.5692,2.5692,2.5693,2.5651,2.5648,2.5646,2.5644,2.5683,2.5687,2.5691,2.5764,0,0,2.5703,2.5704,0,0,0,0,0,0,0,0,2.558,2.5587,2.5638,2.5638,2.5637,2.5664,2.5666,2.5717,2.5651,2.5645,2.5645,2.5642,2.568,2.5684,2.5697,2.5766,2.5767,2.5703,2.5705,2.5707,2.5708,0,0,0,0,0,0,0,2.5577,2.5585,2.5668,2.5639,2.5638,2.5627,2.5631,2.5676,2.5676,2.5645,2.5642,2.5648,2.5679,2.5693,2.5697,2.5768,2.5703,2.5706,2.5709,2.571,2.5897,2.5899,0,0,0,0,0,0,2.5576,2.5583,2.5666,2.5669,2.5602,2.5631,2.5635,2.5657,2.5675,2.5675,2.565,2.5646,2.5688,2.5693,2.5698,2.5784,2.5707,2.571,2.5713,2.5894,2.5897,2.59,0,0,0,0,0,0,2.5573,2.5584,2.5665,2.5625,2.5634,2.5635,2.5661,2.5659,2.5674,2.5678,2.5678,2.5664,2.5686,2.5693,2.5747,2.5785,2.5712,2.5716,2.5891,2.5895,2.5899,2.5956,0,0,0,0,0,0,2.557,2.5583,2.5612,2.5626,2.5637,2.5714,2.5663,2.5662,2.568,2.5675,2.5692,2.5692,2.5684,2.5742,2.5751,2.5789,2.5719,2.5888,2.5893,2.5897,2.5951,2.5962,2.5971,0,0,0,0,0,2.5566,2.5626,2.5613,2.5624,2.5673,2.5717,2.5723,2.5713,2.5684,2.5712,2.5714,2.5692,2.5779,2.5748,2.5758,2.5797,2.5885,2.5891,2.5897,2.5947,2.596,2.5971,0,0,0,0,0,0,2.5616,2.5628,2.5614,2.568,2.5698,2.5709,2.5745,2.5727,2.5753,2.5747,2.5733,2.5737,2.5795,2.5801,2.5766,2.5868,2.5827,2.5835,2.5861,2.5874,2.5884,2.5881,2.5722,0,0,0,0,0,2.5635,2.5671,2.5679,2.5737,2.5746,2.5744,2.5763,2.5753,2.5771,2.5778,2.5785,2.5802,2.5833,2.5854,2.5883,2.5952,2.5954,2.5983,2.5993,2.6001,2.6009,2.6044,2.6057,2.5919,2.5919,2.5919,0,0,2.5675,2.5685,2.5708,2.5747,2.5759,2.5795,2.575,2.5791,2.5817,2.5784,2.5835,2.5841,2.5859,2.5921,2.5948,2.5928,2.6047,2.6009,2.6015,2.6018,2.6051,2.6064,2.6076,2.5923,2.5923,2.5922,0,0,2.5764,2.5777,2.5825,2.5838,2.5858,2.5856,2.5867,2.5881,2.5884,2.5935,2.591,2.5941,2.5995,2.6009,2.6023,2.6116,2.6095,2.6125,2.6177,2.6212,2.6222,2.6232,2.6264,2.6276,2.6133,2.6133,2.6133,0,2.5811,2.5865,2.5853,2.5895,2.5911,2.5883,2.5931,2.5944,2.5972,2.5984,2.5961,2.6027,2.6038,2.6101,2.6124,2.6137,2.6148,2.6124,2.6222,2.6231,2.624,2.627,2.6283,2.6136,2.6136,2.6135,2.6135,0,2.592,2.5957,2.5994,2.6022,2.6043,2.6088,2.6082,2.6104,2.6093,2.6093,2.6145,2.6156,2.6186,2.62,2.6189,2.6262,2.6249,2.6224,2.6183,2.6257,2.6285,2.6297,2.6141,2.614,2.6139,2.6138,0,0,2.6043,2.6062,2.6076,2.6087,2.6106,2.6134,2.6177,2.6206,2.6225,2.6245,2.628,2.6326,2.6303,2.6318,2.6309,2.6339,2.641,2.6311,2.6311,2.6328,2.6489,2.6507,2.6521,2.6397,2.6399,2.6401,2.6488,0,2.6133,2.6208,2.6198,2.6269,2.6303,2.6275,2.6312,2.6327,2.6328,2.6356,2.6356,2.6388,2.6356,2.6365,2.6394,2.6396,2.6443,2.6389,2.6428,2.643,2.6424,2.6536,2.6556,2.6637,2.6499,2.6501,2.6502,0,2.6248,2.6271,2.6346,2.6357,2.6371,2.6405,2.643,2.6458,2.6473,2.6471,2.6488,2.6472,2.6514,2.6472,2.6529,2.6493,2.6508,2.6511,2.6514,2.6517,2.647,2.6541,2.6663,2.6675,2.6519,2.6518,2.6517,0,2.6329,2.6379,2.643,2.6441,2.6456,2.648,2.6487,2.65,2.6518,2.6539,2.655,2.6577,2.6591,2.6611,2.6603,2.6573,2.666,2.6618,2.6659,2.6659,2.6679,2.6678,2.6804,2.669,2.6689,2.6689,2.6689,0,2.6429,2.6476,2.6466,2.6498,2.6549,2.6536,2.6587,2.659,2.6602,2.6632,2.661,2.6639,2.6626,2.6654,2.6648,2.6695,2.6701,2.67,2.6698,2.6702,2.6702,2.6712,2.6706,2.6692,2.6692,2.6691,2.6691,0,2.6529,2.6525,2.6578,2.6587,2.6591,2.6628,2.6635,2.6664,2.6663,2.6702,2.671,2.6707,2.6739,2.6732,2.6767,2.6762,2.6821,2.6812,2.6816,2.6814,2.6855,2.6851,2.6991,2.7008,2.6884,2.6885,2.6886,0,2.6593,2.6629,2.6641,2.666,2.6669,2.6701,2.6718,2.6706,2.6726,2.6745,2.6771,2.6801,2.6824,2.6875,2.6876,2.6902,2.6893,2.694,2.6896,2.6899,2.6892,2.689,2.6893,2.6948,2.695,2.6951,2.6952,0,2.6708,2.6703,2.673,2.6756,2.6777,2.6797,2.6814,2.6831,2.682,2.6843,2.6875,2.6893,2.6928,2.6957,2.698,2.6987,2.6967,2.6966,2.6976,2.6981,2.6981,2.698,2.6839,2.6962,2.6961,2.6961,2.696,2.696,2.6791,2.682,2.6833,2.6863,2.6875,2.6891,2.6919,2.692,2.6947,2.6974,2.6965,2.7001,2.7014,2.7044,2.7053,2.708,2.7063,2.7078,2.7082,2.7086,2.7091,2.6977,2.7085,2.7085,2.7084,2.7084,2.7084,0,2.6903,2.691,2.6938,2.6962,2.6985,2.6965,2.6983,2.7003,2.7036,2.7049,2.7072,2.7108,2.7136,2.7138,2.7164,2.7185,2.7177,2.7193,2.7191,2.7192,2.7106,2.7094,2.7199,2.7199,2.7199,2.7199,2.7199,2.7199,2.6964,2.7012,2.7009,2.7062,2.7069,2.7104,2.7116,2.713,2.7141,2.7182,2.7205,2.7206,2.7215,2.7241,2.7265,2.7265,2.7275,2.7294,2.729,2.721,2.7198,2.7187,2.7176,2.7297,2.7297,2.7374,2.7375,2.7375]}]]